KC3ICT Weather Reports


time (UTC)temp
F
wind
direction
speed
knots
gust
knots
rain 1hr
in
rain 24hr
in
rain mn
in
humidity
%
barometer
mb
20260509052522 46 346 1.7 5.2 0.03 0.10 0.06 94 1010.6
20260509051633 47 86 0.9 1.7 0.04 0.09 0.05 93 1010.6
20260509050604 47 0.0 1.7 0.05 0.09 0.05 92 1010.5
20260509045554 47 49 0.9 2.6 0.05 0.09 0.05 93 1010.7
20260509044603 47 37 0.9 3.5 0.06 0.09 0.05 93 1010.8
20260509043533 47 34 0.9 2.6 0.05 0.08 0.04 92 1010.8
20260509042523 46 5 0.9 3.5 0.04 0.07 0.02 92 1010.8
20260509041614 46 311 0.9 1.7 0.03 0.05 0.01 92 1010.7
20260509040625 47 124 0.9 2.6 0.02 0.05 0.00 91 1010.4
20260509035555 47 292 0.9 2.6 0.02 0.04 0.04 89 1010.6
20260509034546 47 312 1.7 3.5 0.01 0.03 0.03 87 1010.6
20260509033538 48 339 2.6 6.1 0.01 0.03 0.03 85 1010.8
20260509032525 48 311 2.6 3.5 0.01 0.03 0.03 84 1010.9
20260509031616 49 332 2.6 6.1 0.00 0.03 0.03 82 1010.8
20260509030626 49 324 4.3 7.8 0.00 0.02 0.02 80 1010.9
20260509025556 49 318 4.3 7.0 0.00 0.02 0.02 77 1011.0
20260509024546 50 302 3.5 8.7 0.00 0.02 0.02 76 1011.0
20260509023536 50 319 4.3 7.8 0.00 0.02 0.02 77 1010.8
20260509022529 50 323 5.2 9.6 0.00 0.03 0.02 77 1010.7
20260509021518 50 323 4.3 8.7 0.00 0.03 0.02 77 1010.7
20260509020607 50 325 2.6 6.1 0.00 0.05 0.02 77 1010.7
20260509015557 50 357 3.5 6.1 0.00 0.06 0.02 77 1010.5
20260509014556 50 340 5.2 10.4 0.00 0.07 0.02 76 1010.4
20260509013546 50 331 3.5 6.1 0.00 0.08 0.02 75 1010.2
20260509012527 50 350 2.6 5.2 0.00 0.09 0.02 75 1010.0
20260509011520 51 136 0.9 2.6 0.00 0.09 0.02 71 1009.8
20260509010608 52 342 1.7 5.2 0.00 0.09 0.02 69 1009.8
20260509005558 51 352 2.6 4.3 0.00 0.09 0.02 69 1009.7
20260509004611 51 305 3.5 5.2 0.00 0.09 0.02 71 1009.5
20260509003538 52 313 2.6 3.5 0.00 0.09 0.02 69 1009.5
20260509002528 52 311 1.7 4.3 0.00 0.09 0.02 69 1009.4
20260509001538 52 49 0.9 3.5 0.00 0.09 0.02 68 1009.4
20260509000629 52 323 3.5 7.8 0.00 0.09 0.02 68 1009.5
20260508235602 52 342 2.6 4.3 0.00 0.09 0.02 66 1009.4
20260508234549 53 345 1.7 4.3 0.00 0.09 0.02 66 1009.2
20260508233539 53 353 1.7 4.3 0.00 0.09 0.02 61 1008.9
20260508232529 54 15 3.5 6.1 0.00 0.09 0.02 58 1008.9
20260508231519 54 135 0.9 4.3 0.00 0.09 0.02 56 1008.8
20260508230613 55 115 0.9 1.7 0.00 0.09 0.02 55 1008.5
20260508225601 55 120 0.0 1.7 0.00 0.09 0.02 59 1008.6
20260508224550 55 0.0 0.9 0.00 0.09 0.02 57 1008.5
20260508223540 56 0.0 0.9 0.00 0.09 0.02 55 1008.7
20260508222533 56 249 0.9 5.2 0.00 0.09 0.02 48 1008.6
20260508221520 57 244 2.6 4.3 0.00 0.09 0.02 43 1008.7
20260508220611 57 250 1.7 4.3 0.00 0.09 0.02 43 1008.6
20260508215601 56 312 2.6 5.2 0.00 0.09 0.02 43 1008.8
20260508214554 56 256 3.5 7.0 0.00 0.09 0.02 42 1008.6
20260508213601 57 297 3.5 7.8 0.00 0.09 0.02 41 1008.5
20260508212531 56 278 5.2 8.7 0.00 0.09 0.02 44 1008.6
20260508211521 55 286 3.5 8.7 0.00 0.09 0.02 45 1008.7
20260508210632 55 283 6.1 14.8 0.00 0.09 0.02 43 1008.8
20260508205602 55 288 4.3 11.3 0.00 0.09 0.02 43 1008.8
20260508204552 56 303 6.1 11.3 0.00 0.09 0.02 43 1008.8
20260508203542 57 308 4.3 10.4 0.00 0.09 0.02 42 1008.9
20260508202532 57 291 11.3 18.2 0.00 0.09 0.02 41 1008.9
20260508201542 56 283 9.6 18.2 0.00 0.09 0.02 43 1009.1
20260508200633 56 293 9.6 20.0 0.00 0.09 0.02 44 1009.2
20260508195603 54 282 7.0 13.0 0.00 0.09 0.02 47 1009.4
20260508194553 54 293 6.1 11.3 0.00 0.09 0.02 47 1009.4
20260508193542 54 289 9.6 14.8 0.00 0.09 0.02 48 1009.7
20260508192532 54 317 6.1 15.6 0.00 0.09 0.02 48 1009.9
20260508191522 53 261 1.7 4.3 0.00 0.09 0.02 51 1009.8
20260508190614 52 300 4.3 9.6 0.00 0.09 0.02 52 1010.2
20260508185624 53 247 3.5 7.8 0.00 0.09 0.02 52 1010.1
20260508184554 52 320 2.6 7.0 0.00 0.09 0.02 56 1010.4
20260508183543 51 272 1.7 5.2 0.00 0.09 0.02 56 1010.5
20260508182533 51 297 2.6 6.1 0.00 0.09 0.02 57 1010.5
20260508181523 50 265 4.3 7.8 0.00 0.09 0.02 59 1010.5
20260508180615 50 288 4.3 7.8 0.00 0.09 0.02 58 1010.7
20260508175607 50 292 2.6 6.1 0.00 0.09 0.02 59 1010.6
20260508174555 50 292 4.3 9.6 0.00 0.09 0.02 58 1010.7
20260508173545 50 302 4.3 7.8 0.00 0.09 0.02 59 1010.8
20260508172554 49 293 4.3 7.8 0.00 0.09 0.02 60 1011.0
20260508171527 49 291 4.3 7.0 0.00 0.09 0.02 60 1011.0
20260508170616 50 245 1.7 4.3 0.01 0.09 0.02 62 1011.1
20260508165626 48 248 1.7 5.2 0.02 0.09 0.02 67 1011.2
20260508164556 48 257 1.7 4.3 0.02 0.09 0.02 66 1011.4
20260508163546 48 260 2.6 5.2 0.02 0.09 0.02 68 1011.4
20260508162536 46 302 1.7 2.6 0.02 0.09 0.02 74 1011.6
20260508161546 44 297 1.7 4.3 0.02 0.09 0.02 75 1011.7
20260508160516 45 268 3.5 6.1 0.00 0.08 0.01 71 1011.8
20260508155607 46 325 3.5 7.8 0.00 0.08 0.00 69 1011.5
20260508154557 47 315 4.3 8.7 0.00 0.08 0.00 63 1011.4
20260508153546 47 279 6.1 11.3 0.00 0.08 0.00 61 1011.1
20260508152557 48 280 7.8 14.8 0.00 0.08 0.00 60 1011.1
20260508151527 47 297 7.8 13.0 0.00 0.08 0.00 61 1011.0
20260508150517 47 301 8.7 13.9 0.00 0.08 0.00 62 1011.2
20260508145628 46 295 5.2 10.4 0.00 0.08 0.00 67 1011.1
20260508144618 46 274 5.2 12.2 0.00 0.08 0.00 69 1011.1
20260508143551 46 278 7.0 13.0 0.00 0.08 0.00 69 1010.9
20260508142541 46 284 3.5 8.7 0.00 0.07 0.00 71 1010.7
20260508141547 46 291 5.2 9.6 0.00 0.07 0.00 71 1010.6
20260508140518 46 298 3.5 9.6 0.00 0.07 0.00 72 1010.6
20260508135609 45 257 5.2 11.3 0.00 0.07 0.00 75 1010.8
20260508134559 44 288 3.5 12.2 0.00 0.07 0.00 77 1010.9
20260508133552 44 300 7.0 11.3 0.00 0.07 0.00 79 1010.9
20260508132720 43 305 5.2 9.6 0.00 0.07 0.00 82 1010.8
20260508131529 42 304 4.3 10.4 0.00 0.07 0.00 87 1010.7
20260508130539 41 336 6.1 12.2 0.00 0.07 0.00 97 1011.0
20260508125610 40 333 4.3 9.6 0.00 0.07 0.00 97 1010.8
20260508124600 39 330 3.5 7.0 0.00 0.07 0.00 96 1010.8
20260508123630 37 264 0.9 3.5 0.00 0.07 0.00 97 1010.8
20260508122540 37 330 1.7 5.2 0.00 0.07 0.00 97 1010.8
20260508121549 36 357 1.7 3.5 0.00 0.07 0.00 97 1010.9
20260508120520 36 282 0.9 3.5 0.00 0.07 0.00 97 1011.1
20260508115611 35 317 2.6 3.5 0.00 0.07 0.00 97 1011.1
20260508114621 35 347 2.6 4.3 0.00 0.07 0.00 97 1011.3
20260508113551 35 313 2.6 5.2 0.00 0.07 0.00 97 1011.4
20260508112541 35 312 3.5 5.2 0.00 0.07 0.00 97 1011.2
20260508111531 34 311 1.7 4.3 0.00 0.07 0.00 97 1011.1
20260508110521 34 285 0.9 3.5 0.00 0.07 0.00 96 1011.1
20260508105612 33 212 1.7 2.6 0.00 0.07 0.00 97 1011.0
20260508104622 33 328 0.9 1.7 0.00 0.07 0.00 97 1011.0
20260508103552 33 249 1.7 2.6 0.00 0.07 0.00 97 1011.1
20260508102542 33 263 2.6 4.3 0.00 0.07 0.00 97 1011.0
20260508101532 33 254 2.6 4.3 0.00 0.07 0.00 96 1010.9
20260508100522 32 245 1.7 3.5 0.00 0.07 0.00 96 1010.9
20260508095613 32 242 1.7 4.3 0.00 0.07 0.00 97 1010.9
20260508094603 32 223 1.7 3.5 0.00 0.07 0.00 97 1010.8
20260508093556 32 261 1.7 3.5 0.00 0.07 0.00 97 1010.9
20260508092543 32 227 1.7 3.5 0.00 0.07 0.00 97 1010.9
20260508091533 33 113 1.7 4.3 0.00 0.07 0.00 97 1010.9
20260508090523 33 161 1.7 3.5 0.00 0.07 0.00 97 1011.1
20260508085614 32 0.0 2.6 0.00 0.07 0.00 97 1011.2
20260508084604 33 225 2.6 3.5 0.00 0.07 0.00 97 1011.0
20260508083557 33 76 0.9 3.5 0.00 0.07 0.00 96 1010.9
20260508082544 33 261 2.6 3.5 0.00 0.07 0.00 97 1011.1
20260508081534 33 155 0.9 3.5 0.00 0.07 0.00 97 1011.0
20260508080524 33 314 0.9 3.5 0.00 0.07 0.00 97 1010.8
20260508075615 33 193 0.9 3.5 0.00 0.07 0.00 97 1010.8
20260508074605 33 129 0.9 3.5 0.00 0.07 0.00 96 1010.8
20260508073555 33 182 2.6 5.2 0.00 0.07 0.00 96 1010.9
20260508072545 33 190 1.7 3.5 0.00 0.07 0.00 97 1010.9
20260508071535 33 174 2.6 3.5 0.00 0.07 0.00 97 1010.8
20260508070525 33 171 1.7 4.3 0.00 0.07 0.00 97 1010.7
20260508065636 34 150 0.0 2.6 0.00 0.07 0.00 96 1010.9
20260508064605 34 0.0 0.0 0.00 0.07 0.00 96 1010.7
20260508063615 34 0.0 0.0 0.00 0.07 0.00 95 1010.9
20260508062545 34 0.0 1.7 0.00 0.07 0.00 95 1011.0
20260508061535 34 0.0 0.9 0.00 0.07 0.00 95 1011.2
20260508060526 34 0.0 0.9 0.00 0.07 0.00 95 1011.1
20260508055516 34 0.0 0.0 0.00 0.07 0.00 95 1011.0
20260508054610 35 0.0 0.9 0.00 0.07 0.00 95 1010.9
20260508053557 35 0.0 0.9 0.00 0.07 0.00 95 1011.0